Time,TemperatureF,DewpointF,PressureIn,WindDirection,WindDirectionDegrees,WindSpeedMPH,WindSpeedGustMPH,Humidity,HourlyPrecipIn,Conditions,Clouds,dailyrainin,SoftwareType,DateUTC
2013-04-06 00:00:00,48.0,-99.9,-100.00,SW,230,13.0,17.0,-999,-99.99,,,-99.99,,2013-04-06 06:00:00,
2013-04-06 00:33:00,48.0,-99.9,-100.00,SW,230,13.0,17.0,-999,-99.99,,,-99.99,,2013-04-06 06:33:00,
2013-04-06 00:43:00,48.0,-99.9,-100.00,SW,230,13.0,17.0,-999,-99.99,,,-99.99,,2013-04-06 06:43:00,
2013-04-06 00:53:00,48.0,-99.9,-100.00,SW,230,13.0,17.0,-999,-99.99,,,-99.99,,2013-04-06 06:53:00,
2013-04-06 01:00:00,50.0,-99.9,-100.00,WSW,247,3.0,5.0,-999,-99.99,,,-99.99,,2013-04-06 07:00:00,
2013-04-06 01:35:00,50.0,-99.9,-100.00,WSW,247,3.0,5.0,-999,-99.99,,,-99.99,,2013-04-06 07:35:00,
2013-04-06 01:45:00,50.0,-99.9,-100.00,WSW,247,3.0,5.0,-999,-99.99,,,-99.99,,2013-04-06 07:45:00,
2013-04-06 01:53:00,50.0,-99.9,-100.00,WSW,247,3.0,5.0,-999,-99.99,,,-99.99,,2013-04-06 07:53:00,
2013-04-06 02:00:00,46.0,-99.9,-100.00,SW,233,10.0,12.0,-999,-99.99,,,-99.99,,2013-04-06 08:00:00,
2013-04-06 02:32:00,46.0,-99.9,-100.00,SW,233,10.0,12.0,-999,-99.99,,,-99.99,,2013-04-06 08:32:00,
2013-04-06 02:43:00,46.0,-99.9,-100.00,SW,233,10.0,12.0,-999,-99.99,,,-99.99,,2013-04-06 08:43:00,
2013-04-06 02:52:00,46.0,-99.9,-100.00,SW,233,10.0,12.0,-999,-99.99,,,-99.99,,2013-04-06 08:52:00,
2013-04-06 03:00:00,48.0,-99.9,-100.00,WSW,240,13.0,16.0,-999,-99.99,,,-99.99,,2013-04-06 09:00:00,
2013-04-06 03:33:00,48.0,-99.9,-100.00,WSW,240,13.0,16.0,-999,-99.99,,,-99.99,,2013-04-06 09:33:00,
2013-04-06 03:43:00,48.0,-99.9,-100.00,WSW,240,13.0,16.0,-999,-99.99,,,-99.99,,2013-04-06 09:43:00,
2013-04-06 03:54:00,48.0,-99.9,-100.00,WSW,240,13.0,16.0,-999,-99.99,,,-99.99,,2013-04-06 09:54:00,
2013-04-06 04:00:00,45.0,-99.9,-100.00,SW,228,9.0,10.0,-999,-99.99,,,-99.99,,2013-04-06 10:00:00,
2013-04-06 04:34:00,45.0,-99.9,-100.00,SW,228,9.0,10.0,-999,-99.99,,,-99.99,,2013-04-06 10:34:00,
2013-04-06 04:43:00,45.0,-99.9,-100.00,SW,228,9.0,10.0,-999,-99.99,,,-99.99,,2013-04-06 10:43:00,
2013-04-06 04:54:00,45.0,-99.9,-100.00,SW,228,9.0,10.0,-999,-99.99,,,-99.99,,2013-04-06 10:54:00,
2013-04-06 05:00:00,46.0,-99.9,-100.00,West,263,9.0,12.0,-999,-99.99,,,-99.99,,2013-04-06 11:00:00,
2013-04-06 05:33:00,46.0,-99.9,-100.00,West,263,9.0,12.0,-999,-99.99,,,-99.99,,2013-04-06 11:33:00,
2013-04-06 05:43:00,46.0,-99.9,-100.00,West,263,9.0,12.0,-999,-99.99,,,-99.99,,2013-04-06 11:43:00,
2013-04-06 05:53:00,46.0,-99.9,-100.00,West,263,9.0,12.0,-999,-99.99,,,-99.99,,2013-04-06 11:53:00,
2013-04-06 06:00:00,47.0,-99.9,-100.00,West,262,10.0,12.0,-999,-99.99,,,-99.99,,2013-04-06 12:00:00,
2013-04-06 06:33:00,47.0,-99.9,-100.00,West,262,10.0,12.0,-999,-99.99,,,-99.99,,2013-04-06 12:33:00,
2013-04-06 06:44:00,47.0,-99.9,-100.00,West,262,10.0,12.0,-999,-99.99,,,-99.99,,2013-04-06 12:44:00,
2013-04-06 06:53:00,47.0,-99.9,-100.00,West,262,10.0,12.0,-999,-99.99,,,-99.99,,2013-04-06 12:53:00,
2013-04-06 07:00:00,47.0,-99.9,-100.00,West,274,8.0,10.0,-999,-99.99,,,-99.99,,2013-04-06 13:00:00,
2013-04-06 07:33:00,47.0,-99.9,-100.00,West,274,8.0,10.0,-999,-99.99,,,-99.99,,2013-04-06 13:33:00,
2013-04-06 07:44:00,47.0,-99.9,-100.00,West,274,8.0,10.0,-999,-99.99,,,-99.99,,2013-04-06 13:44:00,
2013-04-06 07:54:00,47.0,-99.9,-100.00,West,274,8.0,10.0,-999,-99.99,,,-99.99,,2013-04-06 13:54:00,
2013-04-06 08:00:00,48.0,-99.9,-100.00,West,279,6.0,8.0,-999,-99.99,,,-99.99,,2013-04-06 14:00:00,
2013-04-06 08:33:00,48.0,-99.9,-100.00,West,279,6.0,8.0,-999,-99.99,,,-99.99,,2013-04-06 14:33:00,
2013-04-06 08:43:00,48.0,-99.9,-100.00,West,279,6.0,8.0,-999,-99.99,,,-99.99,,2013-04-06 14:43:00,
2013-04-06 08:54:00,48.0,-99.9,-100.00,West,279,6.0,8.0,-999,-99.99,,,-99.99,,2013-04-06 14:54:00,
2013-04-06 09:00:00,48.0,-99.9,-100.00,West,271,11.0,13.0,-999,-99.99,,,-99.99,,2013-04-06 15:00:00,
2013-04-06 09:34:00,48.0,-99.9,-100.00,West,271,11.0,13.0,-999,-99.99,,,-99.99,,2013-04-06 15:34:00,
2013-04-06 09:44:00,48.0,-99.9,-100.00,West,271,11.0,13.0,-999,-99.99,,,-99.99,,2013-04-06 15:44:00,
2013-04-06 09:54:00,48.0,-99.9,-100.00,West,271,11.0,13.0,-999,-99.99,,,-99.99,,2013-04-06 15:54:00,
2013-04-06 10:00:00,50.0,-99.9,-100.00,West,276,7.0,10.0,-999,-99.99,,,-99.99,,2013-04-06 16:00:00,
2013-04-06 10:33:00,50.0,-99.9,-100.00,West,276,7.0,10.0,-999,-99.99,,,-99.99,,2013-04-06 16:33:00,
2013-04-06 10:43:00,50.0,-99.9,-100.00,West,276,7.0,10.0,-999,-99.99,,,-99.99,,2013-04-06 16:43:00,
2013-04-06 10:53:00,50.0,-99.9,-100.00,West,276,7.0,10.0,-999,-99.99,,,-99.99,,2013-04-06 16:53:00,
2013-04-06 11:00:00,50.0,-99.9,-100.00,WNW,293,16.0,19.0,-999,-99.99,,,-99.99,,2013-04-06 17:00:00,
2013-04-06 11:33:00,50.0,-99.9,-100.00,WNW,293,16.0,19.0,-999,-99.99,,,-99.99,,2013-04-06 17:33:00,
2013-04-06 11:43:00,50.0,-99.9,-100.00,WNW,293,16.0,19.0,-999,-99.99,,,-99.99,,2013-04-06 17:43:00,
2013-04-06 11:53:00,50.0,-99.9,-100.00,WNW,293,16.0,19.0,-999,-99.99,,,-99.99,,2013-04-06 17:53:00,
2013-04-06 12:00:00,53.0,-99.9,-100.00,SW,224,6.0,10.0,-999,-99.99,,,-99.99,,2013-04-06 18:00:00,
2013-04-06 12:33:00,53.0,-99.9,-100.00,SW,224,6.0,10.0,-999,-99.99,,,-99.99,,2013-04-06 18:33:00,
2013-04-06 12:43:00,53.0,-99.9,-100.00,SW,224,6.0,10.0,-999,-99.99,,,-99.99,,2013-04-06 18:43:00,
2013-04-06 12:53:00,53.0,-99.9,-100.00,SW,224,6.0,10.0,-999,-99.99,,,-99.99,,2013-04-06 18:53:00,
2013-04-06 13:00:00,56.0,-99.9,-100.00,NW,310,8.0,10.0,-999,-99.99,,,-99.99,,2013-04-06 19:00:00,
2013-04-06 13:33:00,56.0,-99.9,-100.00,NW,310,8.0,10.0,-999,-99.99,,,-99.99,,2013-04-06 19:33:00,
2013-04-06 13:42:00,56.0,-99.9,-100.00,NW,310,8.0,10.0,-999,-99.99,,,-99.99,,2013-04-06 19:42:00,
2013-04-06 13:54:00,56.0,-99.9,-100.00,NW,310,8.0,10.0,-999,-99.99,,,-99.99,,2013-04-06 19:54:00,
2013-04-06 14:00:00,58.0,-99.9,-100.00,West,274,16.0,20.0,-999,-99.99,,,-99.99,,2013-04-06 20:00:00,
2013-04-06 14:32:00,58.0,-99.9,-100.00,West,274,16.0,20.0,-999,-99.99,,,-99.99,,2013-04-06 20:32:00,
2013-04-06 14:42:00,58.0,-99.9,-100.00,West,274,16.0,20.0,-999,-99.99,,,-99.99,,2013-04-06 20:42:00,
2013-04-06 14:53:00,58.0,-99.9,-100.00,West,274,16.0,20.0,-999,-99.99,,,-99.99,,2013-04-06 20:53:00,
2013-04-06 15:00:00,59.0,-99.9,-100.00,WNW,290,11.0,18.0,-999,-99.99,,,-99.99,,2013-04-06 21:00:00,
2013-04-06 15:33:00,59.0,-99.9,-100.00,WNW,290,11.0,18.0,-999,-99.99,,,-99.99,,2013-04-06 21:33:00,
2013-04-06 15:44:00,59.0,-99.9,-100.00,WNW,290,11.0,18.0,-999,-99.99,,,-99.99,,2013-04-06 21:44:00,
2013-04-06 15:53:00,59.0,-99.9,-100.00,WNW,290,11.0,18.0,-999,-99.99,,,-99.99,,2013-04-06 21:53:00,
2013-04-06 16:00:00,56.0,-99.9,-100.00,WNW,290,13.0,23.0,-999,-99.99,,,-99.99,,2013-04-06 22:00:00,
2013-04-06 16:35:00,56.0,-99.9,-100.00,WNW,290,13.0,23.0,-999,-99.99,,,-99.99,,2013-04-06 22:35:00,
2013-04-06 16:44:00,56.0,-99.9,-100.00,WNW,290,13.0,23.0,-999,-99.99,,,-99.99,,2013-04-06 22:44:00,
2013-04-06 18:00:00,52.0,-99.9,-100.00,WSW,257,21.0,29.0,-999,-99.99,,,-99.99,,2013-04-07 00:00:00,
2013-04-06 18:33:00,52.0,-99.9,-100.00,WSW,257,21.0,29.0,-999,-99.99,,,-99.99,,2013-04-07 00:33:00,
2013-04-06 18:44:00,52.0,-99.9,-100.00,WSW,257,21.0,29.0,-999,-99.99,,,-99.99,,2013-04-07 00:44:00,
2013-04-06 18:54:00,52.0,-99.9,-100.00,WSW,257,21.0,29.0,-999,-99.99,,,-99.99,,2013-04-07 00:54:00,
2013-04-06 19:00:00,53.0,-99.9,-100.00,SW,230,15.0,19.0,-999,-99.99,,,-99.99,,2013-04-07 01:00:00,
2013-04-06 19:33:00,53.0,-99.9,-100.00,SW,230,15.0,19.0,-999,-99.99,,,-99.99,,2013-04-07 01:33:00,
2013-04-06 19:43:00,53.0,-99.9,-100.00,SW,230,15.0,19.0,-999,-99.99,,,-99.99,,2013-04-07 01:43:00,
2013-04-06 19:54:00,53.0,-99.9,-100.00,SW,230,15.0,19.0,-999,-99.99,,,-99.99,,2013-04-07 01:54:00,
2013-04-06 20:00:00,52.0,-99.9,-100.00,SW,232,11.0,18.0,-999,-99.99,,,-99.99,,2013-04-07 02:00:00,
2013-04-06 20:33:00,52.0,-99.9,-100.00,SW,232,11.0,18.0,-999,-99.99,,,-99.99,,2013-04-07 02:33:00,
2013-04-06 20:43:00,52.0,-99.9,-100.00,SW,232,11.0,18.0,-999,-99.99,,,-99.99,,2013-04-07 02:43:00,
2013-04-06 20:53:00,52.0,-99.9,-100.00,SW,232,11.0,18.0,-999,-99.99,,,-99.99,,2013-04-07 02:53:00,
2013-04-06 21:00:00,48.0,-99.9,-100.00,WSW,254,13.0,16.0,-999,-99.99,,,-99.99,,2013-04-07 03:00:00,
2013-04-06 21:35:00,48.0,-99.9,-100.00,WSW,254,13.0,16.0,-999,-99.99,,,-99.99,,2013-04-07 03:35:00,
2013-04-06 21:44:00,48.0,-99.9,-100.00,WSW,254,13.0,16.0,-999,-99.99,,,-99.99,,2013-04-07 03:44:00,
2013-04-06 21:55:00,48.0,-99.9,-100.00,WSW,254,13.0,16.0,-999,-99.99,,,-99.99,,2013-04-07 03:55:00,
2013-04-06 22:00:00,48.0,-99.9,-100.00,WSW,254,11.0,12.0,-999,-99.99,,,-99.99,,2013-04-07 04:00:00,
2013-04-06 22:32:00,48.0,-99.9,-100.00,WSW,254,11.0,12.0,-999,-99.99,,,-99.99,,2013-04-07 04:32:00,
2013-04-06 22:43:00,48.0,-99.9,-100.00,WSW,254,11.0,12.0,-999,-99.99,,,-99.99,,2013-04-07 04:43:00,
2013-04-06 22:53:00,48.0,-99.9,-100.00,WSW,254,11.0,12.0,-999,-99.99,,,-99.99,,2013-04-07 04:53:00,
2013-04-06 23:00:00,48.0,-99.9,-100.00,WSW,249,11.0,14.0,-999,-99.99,,,-99.99,,2013-04-07 05:00:00,
2013-04-06 23:34:00,48.0,-99.9,-100.00,WSW,249,11.0,14.0,-999,-99.99,,,-99.99,,2013-04-07 05:34:00,
2013-04-06 23:43:00,48.0,-99.9,-100.00,WSW,249,11.0,14.0,-999,-99.99,,,-99.99,,2013-04-07 05:43:00,
2013-04-06 23:53:00,48.0,-99.9,-100.00,WSW,249,11.0,14.0,-999,-99.99,,,-99.99,,2013-04-07 05:53:00,